Location: Brantley
(31.5822°N, 86.2569°W)
Time: 01:26:06
(UTC+00:00)

Vanguard 2 - Pass Details

Date: 16 February 2026
Orbit: 553 x 2896 km, 32.9° (Epoch: 10 March)

Event Time Altitude Azimuth Distance (km) Brightness Sun altitude
Rises 09:59:20 0° 222° (SW) 4,482 - -31.8°
Reaches altitude 10° 10:03:24 10° 211° (SSW) 3,084 - -30.9°
Exits shadow 10:07:50 24° 177° (S) 1,827 9.4 -30.0°
Maximum altitude 10:09:06 26° 158° (SSE) 1,656 9.3 -29.7°
Drops below altitude 10° 10:13:14 10° 101° (ESE) 2,167 10.7 -28.8°
Sets 10:15:34 0° 87° (E) 2,921 11.8 -28.3°
